Wind_Speed
35 35 32 35 38 38 37 38 38 34 35 37 35 37 33 35 34 33 31 29 30 30 32 36 39 40 40 40 39 37 37 36 35 37 39 41 41 40 41 44 46 46 46 46
37 40 37 39 41 42 42 41 36 38 37 37 35 33 32 34 35 34 33 33 31 32 34 35 36 38 40 41 41 42 43 39 36 37 38 39 41 44 47 47 48 48 49 50
43 43 42 43 41 39 39 36 36 37 35 36 38 38 34 35 36 36 35 35 36 38 39 40 39 38 38 38 39 41 43 46 47 45 44 42 42 44 46 49 51 54 56 56
45 41 40 38 35 35 36 34 37 37 40 40 42 45 39 35 37 38 37 38 39 40 40 41 41 42 41 41 41 41 42 44 45 46 48 49 48 48 47 49 51 53 55 59
37 35 35 36 36 36 34 36 38 41 42 46 41 44 46 42 42 40 39 38 38 40 43 46 47 47 47 47 47 48 47 47 47 48 50 51 53 54 54 55 56 56 57 58
37 38 35 35 36 35 37 39 42 44 46 51 42 44 50 45 44 42 43 44 45 48 49 52 52 52 52 50 50 51 53 53 52 52 52 54 56 58 60 61 63 63 63 63
37 36 36 36 36 38 41 42 43 46 45 48 49 48 46 45 46 46 47 51 54 56 55 55 57 55 54 53 52 53 55 56 56 57 59 61 61 62 62 63 66 69 70 71
39 37 38 39 41 42 43 44 45 45 47 47 46 52 51 52 52 53 56 57 57 58 57 58 59 58 56 56 57 59 61 62 63 64 66 67 68 68 69 69 70 70 72 79
41 41 40 40 43 43 43 43 40 45 47 49 52 55 55 56 55 55 56 56 56 56 55 56 56 57 59 63 65 66 66 67 68 68 69 71 72 73 73 75 77 77 78 81
46 46 44 43 41 41 41 41 44 47 51 57 58 58 58 53 53 53 54 54 55 56 57 58 60 63 65 67 68 70 70 71 72 74 75 76 77 76 76 77 78 81 83 85
47 50 52 48 44 42 44 48 50 48 53 56 57 61 58 54 55 57 58 57 58 58 61 63 65 67 68 70 72 74 75 75 76 77 78 79 80 81 82 82 83 84 85 86
43 47 51 48 50 50 50 48 46 50 53 53 57 63 59 57 58 58 58 58 60 64 67 69 70 71 73 74 75 77 78 79 80 80 81 83 84 85 86 87 88 89 88 88
43 49 52 57 56 54 53 50 49 52 56 62 62 63 57 57 58 58 60 63 65 68 70 71 73 74 75 76 77 77 78 80 83 84 85 85 85 87 88 88 89 89 89 89
52 57 58 59 58 57 56 53 55 58 62 61 61 59 59 59 60 63 65 67 71 71 73 74 74 74 75 75 76 78 80 82 84 85 86 87 87 88 89 90 90 91 91 92
54 57 56 56 57 56 56 56 60 63 62 65 60 60 57 61 63 65 69 71 70 72 70 69 70 71 72 75 77 78 80 82 83 84 85 86 87 88 89 88 87 86 85 83
58 58 58 60 61 62 63 61 66 65 64 64 62 64 60 63 65 68 68 68 69 67 68 68 70 72 73 76 78 80 82 84 85 86 87 86 84 81 77 73 70 69 66 66
60 61 61 63 64 68 72 68 65 63 60 62 67 64 64 65 68 69 69 68 67 68 69 71 73 75 76 78 80 82 83 85 86 84 80 75 70 67 66 65 64 64 65 67
63 64 65 68 69 73 71 64 62 62 60 63 67 68 68 69 69 67 65 66 68 70 71 73 74 76 78 80 81 83 84 83 79 73 67 64 63 62 62 63 65 66 69 71
67 66 66 67 69 69 70 67 62 62 60 63 68 67 68 67 68 66 66 70 70 71 72 74 76 78 78 80 82 81 76 69 65 62 61 61 61 62 62 63 65 68 70 71
60 59 60 64 69 73 67 64 63 65 68 63 66 67 69 68 68 65 70 70 70 72 74 75 77 78 79 78 75 66 62 60 59 60 61 62 62 62 62 64 66 69 70 69
56 56 58 59 66 70 67 64 63 66 65 64 67 67 67 67 69 69 69 71 72 74 76 76 76 76 73 65 59 57 57 57 58 59 60 61 62 62 63 65 68 69 68 68
56 55 59 62 67 70 62 65 65 64 64 65 64 66 68 69 69 71 72 73 74 75 74 73 72 66 59 56 55 54 55 55 56 58 60 61 62 64 66 67 68 69 69 67
55 55 56 60 63 64 67 65 65 64 64 64 67 69 71 72 71 73 74 74 73 73 70 67 62 57 55 54 53 54 54 56 57 58 59 61 64 65 66 67 69 68 68 66
50 51 57 60 60 63 65 64 63 64 66 67 70 72 74 74 73 73 72 70 67 64 62 59 55 55 54 54 53 54 54 56 58 59 60 62 63 64 65 67 68 66 65 60
46 48 55 59 61 61 63 65 65 66 69 71 72 73 73 73 72 68 64 60 58 53 54 53 52 52 52 52 53 55 56 57 59 61 62 62 62 63 64 64 62 61 61 56
46 50 60 63 60 63 65 65 67 69 71 71 70 71 71 67 62 58 56 54 51 49 50 51 52 52 52 53 54 55 58 60 62 62 62 61 62 63 62 60 57 56 56 48
Wind_Direction
274 275 281 278 277 280 281 281 281 284 280 280 280 287 289 289 294 293 293 289 286 280 278 282 284 284 285 287 289 287 284 281 276 272 271 271 270 265 263 265 267 267 264 262
274 274 274 274 277 277 278 277 281 279 279 282 286 285 286 289 291 291 290 289 286 284 283 280 279 280 282 284 284 285 287 281 275 274 273 271 266 266 266 263 262 261 261 265
270 271 271 274 272 272 273 278 277 277 277 278 282 283 285 286 286 285 287 289 291 290 290 290 288 285 282 280 278 277 275 277 280 278 274 271 268 266 263 264 265 264 264 262
270 271 270 270 271 271 277 277 278 280 281 282 283 286 283 282 281 286 289 289 289 291 291 291 292 291 288 284 282 277 274 271 270 270 271 272 272 271 267 264 264 264 265 265
269 267 264 270 273 277 276 277 280 282 283 284 285 289 289 286 286 286 288 290 288 288 290 291 289 286 284 282 278 275 272 271 271 271 271 271 270 269 269 268 266 263 261 260
267 270 271 272 275 277 279 279 279 279 280 282 287 284 288 292 294 297 297 295 292 291 292 292 290 288 285 282 280 280 281 281 280 278 274 272 270 269 270 270 269 267 265 264
266 269 271 274 275 277 276 274 274 275 279 283 282 282 285 289 291 293 295 294 292 291 290 289 288 287 284 281 281 281 281 279 278 277 276 276 274 274 271 269 266 266 266 266
271 272 273 274 275 275 274 273 271 277 279 278 279 283 292 293 292 293 292 290 291 289 288 288 286 284 282 281 281 280 280 279 279 279 278 277 275 274 273 274 272 269 268 268
273 273 272 271 272 272 271 269 275 274 274 278 282 285 291 291 290 288 289 288 286 285 283 281 280 279 280 280 280 280 280 278 277 276 276 276 276 276 274 271 270 269 268 267
275 273 270 269 267 265 271 274 274 279 281 282 286 289 289 288 285 285 285 283 282 280 280 279 278 278 278 279 280 281 281 281 280 280 280 279 278 277 277 276 275 273 272 271
274 275 275 270 268 270 272 275 280 280 278 281 287 288 287 287 289 286 282 280 277 277 277 277 276 276 276 277 277 278 280 280 281 282 282 283 282 282 282 281 280 279 277 274
264 266 266 269 270 277 280 284 285 282 285 281 277 284 285 287 283 281 280 279 275 272 272 273 274 276 276 277 278 278 279 279 280 281 283 285 285 284 284 283 283 281 280 278
255 260 266 269 273 277 281 282 281 281 280 279 277 290 288 285 280 279 277 274 273 274 274 274 275 276 277 278 280 283 286 288 289 289 288 287 287 286 286 285 284 283 282 280
259 263 268 274 278 279 280 282 283 278 276 281 283 284 284 281 280 279 277 275 275 276 277 277 278 279 282 286 288 290 290 290 289 289 289 288 288 288 287 286 286 284 283 282
265 271 278 281 280 279 280 283 282 276 278 275 284 280 281 280 278 276 276 277 277 277 280 283 285 287 288 290 290 289 288 288 289 289 289 290 290 289 288 287 287 286 285 285
272 281 283 284 283 280 278 279 276 277 277 281 279 276 279 276 275 276 277 277 280 281 283 285 287 288 287 286 288 290 292 292 293 293 293 292 291 290 289 288 287 287 287 286
284 286 288 284 281 277 275 283 278 277 278 278 277 282 277 277 277 276 278 279 281 282 283 285 286 287 291 293 294 294 294 294 293 293 291 290 289 288 288 288 287 287 287 288
287 285 284 280 278 273 284 281 275 274 273 275 276 276 277 276 275 276 279 279 280 283 285 287 290 292 292 293 294 294 294 294 293 290 289 289 289 290 289 290 290 290 291 291
283 282 279 273 272 274 278 279 278 274 270 272 275 277 277 276 277 279 283 282 286 288 289 290 291 292 294 294 294 294 294 291 289 289 290 291 292 293 293 293 293 293 293 294
275 271 272 274 273 275 281 275 273 274 273 273 275 274 274 277 280 283 283 286 289 290 292 293 294 295 295 294 295 292 290 289 290 290 291 292 293 294 294 295 294 294 295 295
271 271 271 271 269 273 277 276 277 273 279 273 271 275 279 281 282 284 285 288 290 292 294 295 296 295 295 295 290 288 287 287 288 290 291 292 293 294 294 295 296 296 297 297
276 272 275 272 271 275 279 274 274 276 275 276 279 280 280 281 283 286 288 290 293 295 295 294 294 294 293 289 286 285 285 286 288 289 290 292 293 295 296 297 298 299 300 299
272 277 275 274 278 278 278 276 275 275 277 279 279 281 283 284 286 288 291 294 295 295 293 293 293 292 290 287 285 285 286 288 289 289 291 293 294 295 296 297 298 300 300 301
274 275 276 276 277 276 275 278 278 279 280 282 283 284 286 287 288 291 293 292 291 290 290 292 291 289 288 287 287 289 290 291 291 292 292 292 293 294 296 297 299 299 299 302
274 276 280 277 276 276 274 277 279 282 283 284 285 286 287 289 291 292 290 288 288 289 289 289 288 287 287 288 289 291 292 293 293 291 291 292 294 296 297 298 297 298 300 302
281 280 274 273 274 276 276 277 280 283 283 284 286 288 291 292 290 288 288 289 290 288 285 285 285 286 288 288 289 290 292 292 291 291 293 295 297 297 297 296 296 300 300 299
Height
5815 5815 5818 5816 5813 5813 5812 5811 5810 5813 5811 5807 5809 5807 5809 5805 5804 5804 5805 5804 5803 5801 5801 5800 5798 5796 5794 5793 5792 5792 5790 5788 5788 5787 5785 5783 5781 5780 5780 5780 5779 5777 5775 5773
5808 5806 5809 5807 5806 5805 5804 5802 5804 5802 5801 5797 5798 5798 5798 5797 5795 5794 5793 5794 5794 5793 5792 5791 5790 5789 5788 5787 5784 5782 5782 5780 5778 5776 5775 5775 5773 5769 5768 5768 5767 5765 5764 5763
5797 5798 5799 5799 5797 5796 5794 5795 5794 5793 5792 5789 5787 5788 5789 5789 5787 5785 5785 5785 5783 5782 5781 5781 5780 5780 5779 5778 5777 5775 5772 5770 5769 5766 5764 5762 5760 5759 5757 5754 5753 5752 5751 5750
5787 5790 5788 5788 5789 5787 5787 5787 5785 5785 5783 5783 5782 5778 5781 5780 5778 5777 5777 5776 5775 5773 5772 5770 5770 5770 5769 5767 5765 5763 5760 5758 5756 5753 5751 5749 5746 5744 5743 5743 5739 5737 5737 5736
5780 5779 5779 5779 5780 5778 5780 5778 5777 5775 5774 5772 5774 5771 5766 5768 5769 5769 5767 5765 5764 5762 5761 5760 5759 5756 5755 5754 5753 5751 5749 5746 5743 5740 5739 5736 5733 5731 5728 5726 5724 5722 5720 5719
5768 5768 5770 5770 5771 5771 5770 5769 5767 5765 5764 5762 5766 5762 5756 5756 5755 5755 5754 5753 5753 5750 5747 5745 5743 5742 5739 5737 5735 5734 5731 5729 5729 5728 5725 5724 5721 5719 5716 5712 5709 5707 5704 5702
5758 5759 5758 5759 5760 5760 5759 5757 5755 5753 5753 5753 5751 5749 5750 5748 5746 5745 5745 5741 5738 5736 5733 5731 5727 5726 5723 5721 5720 5718 5717 5716 5713 5711 5710 5708 5706 5703 5700 5698 5695 5691 5688 5686
5747 5749 5748 5749 5748 5747 5746 5746 5745 5743 5741 5741 5740 5736 5738 5735 5734 5734 5731 5728 5727 5722 5719 5717 5714 5710 5709 5707 5705 5703 5701 5699 5697 5694 5692 5690 5688 5686 5684 5680 5677 5674 5671 5668
5735 5736 5737 5737 5737 5737 5736 5735 5738 5732 5731 5729 5728 5727 5728 5723 5722 5719 5717 5715 5713 5711 5707 5703 5700 5698 5694 5691 5688 5685 5683 5681 5679 5677 5675 5672 5669 5666 5664 5662 5658 5654 5651 5647
5722 5722 5724 5726 5725 5724 5725 5725 5722 5722 5717 5712 5714 5715 5713 5714 5710 5708 5704 5700 5699 5696 5693 5690 5686 5683 5678 5673 5670 5666 5664 5661 5659 5656 5653 5651 5648 5645 5642 5638 5635 5633 5629 5625
5708 5710 5713 5713 5714 5714 5713 5711 5711 5710 5703 5699 5699 5700 5697 5698 5697 5694 5691 5687 5683 5681 5678 5675 5670 5666 5662 5658 5654 5650 5647 5644 5640 5637 5633 5629 5625 5622 5618 5615 5613 5610 5607 5603
5696 5696 5697 5697 5695 5698 5697 5698 5696 5691 5691 5685 5680 5686 5684 5685 5679 5675 5674 5672 5668 5663 5660 5657 5654 5650 5645 5641 5636 5632 5628 5623 5620 5616 5613 5609 5606 5600 5595 5590 5586 5583 5580 5576
5685 5681 5684 5681 5683 5685 5685 5684 5681 5677 5674 5669 5669 5672 5672 5667 5661 5660 5657 5653 5650 5647 5643 5640 5636 5632 5627 5622 5617 5612 5608 5603 5598 5593 5589 5585 5580 5575 5571 5566 5561 5556 5551 5547
5668 5667 5669 5670 5670 5669 5668 5669 5666 5662 5653 5655 5655 5659 5658 5652 5647 5644 5640 5635 5633 5630 5625 5621 5618 5613 5608 5604 5599 5593 5588 5583 5578 5572 5567 5561 5555 5550 5544 5538 5533 5528 5523 5519
5652 5651 5652 5653 5652 5651 5652 5653 5646 5642 5642 5635 5642 5640 5647 5637 5632 5626 5622 5618 5615 5610 5607 5604 5600 5595 5591 5586 5580 5574 5567 5562 5557 5551 5544 5538 5531 5524 5518 5512 5506 5500 5495 5491
5638 5635 5634 5633 5634 5634 5633 5638 5628 5627 5627 5623 5623 5620 5627 5623 5614 5611 5605 5601 5598 5595 5591 5587 5582 5577 5573 5567 5560 5552 5545 5538 5532 5525 5519 5512 5505 5499 5494 5489 5484 5479 5475 5470
5621 5621 5619 5615 5617 5615 5612 5625 5619 5613 5614 5608 5601 5607 5603 5602 5597 5593 5590 5588 5583 5579 5574 5570 5565 5559 5552 5544 5536 5529 5522 5515 5508 5501 5495 5489 5485 5480 5476 5471 5466 5461 5456 5451
5606 5604 5602 5598 5597 5590 5602 5605 5604 5599 5599 5594 5589 5585 5583 5581 5578 5578 5576 5571 5566 5562 5558 5552 5545 5538 5530 5523 5516 5509 5501 5493 5486 5479 5474 5470 5466 5462 5458 5452 5447 5442 5437 5431
5589 5588 5584 5580 5579 5579 5587 5586 5585 5578 5582 5579 5570 5568 5563 5560 5560 5563 5555 5549 5547 5541 5536 5532 5524 5518 5511 5503 5495 5487 5479 5472 5466 5461 5457 5453 5448 5444 5439 5434 5429 5423 5418 5412
5576 5573 5571 5566 5559 5557 5571 5569 5562 5558 5554 5567 5559 5549 5543 5543 5540 5545 5531 5532 5527 5521 5516 5510 5502 5496 5489 5481 5474 5467 5461 5455 5450 5445 5441 5436 5432 5427 5422 5417 5411 5405 5399 5393
5558 5555 5552 5548 5540 5540 5549 5544 5544 5539 5545 5541 5534 5534 5530 5527 5526 5521 5519 5512 5507 5501 5494 5487 5481 5474 5467 5460 5455 5451 5446 5441 5436 5430 5425 5421 5416 5412 5406 5402 5394 5387 5381 5374
5540 5536 5537 5533 5526 5521 5534 5522 5522 5522 5517 5518 5517 5517 5511 5510 5509 5502 5499 5494 5486 5480 5474 5467 5460 5454 5449 5444 5439 5435 5432 5427 5422 5417 5412 5406 5401 5395 5390 5384 5376 5369 5361 5356
5521 5524 5522 5520 5515 5510 5504 5505 5503 5503 5499 5499 5497 5496 5492 5492 5490 5484 5480 5474 5466 5458 5451 5446 5441 5435 5431 5427 5424 5420 5416 5412 5408 5403 5398 5393 5386 5380 5373 5367 5360 5353 5344 5338
5509 5512 5505 5502 5504 5496 5485 5483 5484 5484 5484 5481 5477 5475 5472 5469 5470 5465 5459 5454 5447 5440 5432 5428 5424 5420 5415 5412 5408 5405 5401 5398 5393 5388 5383 5378 5372 5365 5358 5351 5344 5337 5328 5324
5501 5498 5492 5486 5484 5475 5470 5468 5468 5467 5464 5462 5457 5453 5450 5448 5447 5443 5438 5433 5427 5423 5417 5413 5409 5405 5401 5397 5394 5390 5386 5382 5377 5372 5367 5361 5355 5349 5343 5336 5328 5321 5314 5309
5490 5487 5472 5464 5464 5454 5453 5457 5455 5451 5447 5441 5436 5434 5432 5427 5424 5422 5418 5415 5410 5406 5402 5399 5395 5391 5387 5383 5380 5376 5371 5367 5361 5355 5350 5345 5339 5332 5327 5322 5317 5307 5300 5296